This is the latest recevied weather packets stored in our database for station/object WX5HOT. If no packets are shown the sender has not sent any weather packets the latest 10 day(s).
| Time | Temp. | Humidity | Pressure | Rain* | Wind** | Luminosity | Snow |
|---|---|---|---|---|---|---|---|
| 1777897235 | 13.89° C | 68% | 1064.4 hPa | 0 mm | - | 70 W/m² | - |
| 1777896932 | 13.89° C | 68% | 1064.5 hPa | 0 mm | - | 64 W/m² | - |
| 1777896629 | 13.89° C | 67% | 1064.3 hPa | 0 mm | - | 33 W/m² | - |
| 1777896326 | 14.44° C | 66% | 1064.3 hPa | 0 mm | - | 31 W/m² | - |
| 1777896024 | 14.44° C | 65% | 1064 hPa | 0 mm | - | 39 W/m² | - |
| 1777895722 | 14.44° C | 64% | 1064.1 hPa | 0 mm | - | 30 W/m² | - |
| 1777895419 | 14.44° C | 64% | 1064.1 hPa | 0 mm | - | 26 W/m² | - |
| 1777895116 | 15° C | 62% | 1063.7 hPa | 0 mm | - | 19 W/m² | - |
| 1777894814 | 15° C | 62% | 1063.9 hPa | 0 mm | - | 14 W/m² | - |
| 1777894510 | 15° C | 61% | 1063.6 hPa | 0 mm | - | 10 W/m² | - |
| 1777894208 | 15° C | 60% | 1063.7 hPa | 0 mm | - | 6 W/m² | - |
| 1777893904 | 15° C | 60% | 1063.7 hPa | 0 mm | - | 4 W/m² | - |
| 1777893601 | 15.56° C | 59% | 1063.6 hPa | 0 mm | - | 2 W/m² | - |
| 1777893297 | 15.56° C | 58% | 1064 hPa | 0 mm | - | 1 W/m² | - |
| 1777892993 | 15.56° C | 58% | 1063.6 hPa | 0 mm | - | 1 W/m² | - |
| 1777892691 | 15.56° C | 58% | 1063.6 hPa | 0 mm | - | 0 W/m² | - |
| 1777892386 | 15.56° C | 57% | 1063.7 hPa | 0 mm | - | 0 W/m² | - |
| 1777892082 | 15.56° C | 58% | 1063.7 hPa | 0 mm | - | 0 W/m² | - |
| 1777891780 | 15.56° C | 58% | 1063.6 hPa | 0 mm | - | 0 W/m² | - |
| 1777891477 | 15.56° C | 58% | 1063.9 hPa | 0 mm | - | 0 W/m² | - |
| 1777891173 | 15.56° C | 58% | 1063.9 hPa | 0 mm | - | 0 W/m² | - |
| 1777890872 | 15.56° C | 58% | 1063.9 hPa | 0 mm | - | 0 W/m² | - |
| 1777890568 | 15.56° C | 58% | 1063.7 hPa | 0 mm | - | 0 W/m² | - |
| 1777890264 | 15.56° C | 58% | 1063.9 hPa | 0 mm | - | 0 W/m² | - |
| 1777889960 | 16.11° C | 58% | 1063.9 hPa | 0 mm | - | 0 W/m² | - |
* Rain latest hour (hover to see other rain measurements)
** Current wind speed in m/s (hover to see current wind gust speed)